Location: Olivenhain
(33.0462°N, 117.2348°W)
Time: 17:44:56
(UTC+00:00)

Daily predictions for brighter satellites

Satellite Brightness Start Highest point End
(mag) Time Altitude Azimuth Time Altitude Azimuth Time Altitude Azimuth
ALOS 4.0 12:00:29 10° NNE 12:04:40 32° E 12:08:50 10° SSE
Cosmos 1464 Rocket 4.1 12:04:00 10° S 12:10:21 78° W 12:16:45 10° N
Cosmos 1263 4.0 12:07:26 10° N 12:10:30 87° W 12:13:28 10° S
Cosmos 1900 4.4 12:07:08 10° SSW 12:11:58 71° WNW 12:16:54 10° NNE
Cosmos 2034 Rocket 4.2 12:09:08 10° S 12:15:17 81° E 12:21:27 10° N
Cosmos 2369 3.8 12:14:26 10° NNW 12:20:11 90° WNW 12:25:55 10° SSE
Cosmos 1975 2.8 12:16:14 10° S 12:20:14 88° W 12:24:15 10° N
